Notices

What's New in latest Release from April 7th, 2021:

- Updated Glossary, including Speed of Maximum Gust, and Total Hourly Precipitation

- Updated national and regional climate services offices contacts and prices information

- Addition of station inventory lists for 1981-2010, 1971-2000, and 1961-1990 Normals.

If you haven't already, please take our survey and provide feedback about our website: https://eccc.sondage-survey.ca/f/LanguageSelection.aspx?s=442ca660-fcf1-47c0-95a9-59707d6fd709

Hourly Data Report for October 17, 2019

CORAL HARBOUR A
NUNAVUT
Current Station Operator: NAVCAN

64°11'36.000" N
83°21'34.000" W
62.20 m
2301002
71915
YZS

Download Data

Hourly Data (October 2019)
Hourly Data Report for October 17, 2019
TIME
LST
Temp Definition
°C
Dew Point Definition
°C
Rel Hum Definition
%
Precip. Amount Definition
mm

Wind Dir Definition
10's deg

Wind Spd Definition
km/h
Visibility Definition
km
Stn Press Definition
kPa
Hmdx Definition


Wind Chill Definition


Weather Definition


00:00 -7.9 -10.0 85   32 25 24.1 101.08   -16 LegendNANA
01:00 -7.3 -9.4 85   35 20 24.1 101.07   -14 Clear
02:00 -7.1 -9.6 82   34 25 24.1 101.07   -15 LegendNANA
03:00 -6.7 -9.9 78   36 22 24.1 101.08   -14 LegendNANA
04:00 -7.0 -10.4 77   35 20 24.1 101.11   -14 Clear
05:00 -7.7 -11.1 77   35 21 24.1 101.13   -15 LegendNANA
06:00 -8.7 -11.1 83   34 19 24.1 101.15   -16 LegendNANA
07:00 -7.4 -10.0 82   32 19 24.1 101.15   -14 Mainly Clear
08:00 -7.0 -10.1 78   33 17 24.1 101.15   -13 LegendNANA
09:00 -5.5 -9.0 76   32 17 24.1 101.12   -12 Snow
10:00 -5.7 -9.4 75   31 23 24.1 101.10   -13 Snow
11:00 -5.4 -9.0 76   32 16 24.1 101.14   -11 LegendNANA
12:00 -4.8 -8.8 73   32 21 24.1 101.13   -11 LegendNANA
13:00 -4.1 -9.0 69   33 22 24.1 101.13   -11 Mainly Clear
14:00 -3.9 -9.6 65   33 26 24.1 101.14   -11 LegendNANA
15:00 -4.4 -9.0 70   32 22 24.1 101.16   -11 LegendNANA
16:00 -5.4 -9.2 74   33 18 24.1 101.17   -12 Mainly Clear
17:00 -6.8 -9.4 82   30 12 24.1 101.20   -12 LegendNANA
18:00 -7.9 -10.3 83   32 15 24.1 101.20   -14 LegendNANA
19:00 -8.5 -11.0 82   33 14 24.1 101.20   -15 Mainly Clear
20:00 -9.0 -11.7 81   33 12 24.1 101.21   -15 LegendNANA
21:00 -8.6 -11.5 79   35 12 24.1 101.20   -14 LegendNANA
22:00 -9.4 -11.6 84   32 11 24.1 101.19   -15 Mostly Cloudy
23:00 -9.3 -11.4 85   31 12 24.1 101.22   -15 LegendNANA

Notes on Data Quality.

Legend

  • E = Estimated
  • M = Missing
  • NA = Not Available*
  • [empty] = Indicates an unobserved value
Date modified: